Time,TemperatureF,DewpointF,PressureIn,WindDirection,WindDirectionDegrees,WindSpeedMPH,WindSpeedGustMPH,Humidity,HourlyPrecipIn,Conditions,Clouds,dailyrainin,SoftwareType,DateUTC
2013-03-02 00:00:00,58.1,43.0,29.88,WNW,292,0.0,0.0,57,0.00,,---,0.00,VWS V13.01,2013-03-02 05:00:00,
2013-03-02 00:05:00,58.3,43.1,29.88,NW,315,0.0,0.0,57,0.00,,---,0.00,VWS V13.01,2013-03-02 05:05:00,
2013-03-02 00:10:00,58.1,43.0,29.88,SW,225,0.0,0.0,57,0.00,,---,0.00,VWS V13.01,2013-03-02 05:10:00,
2013-03-02 00:15:00,58.1,43.0,29.88,NNE,22,0.0,0.0,57,0.00,,---,0.00,VWS V13.01,2013-03-02 05:15:00,
2013-03-02 00:20:00,57.9,43.2,29.88,WNW,292,0.0,0.0,58,0.00,,---,0.00,VWS V13.01,2013-03-02 05:20:00,
2013-03-02 00:25:00,57.9,43.2,29.88,NW,315,0.0,0.0,58,0.00,,---,0.00,VWS V13.01,2013-03-02 05:25:00,
2013-03-02 00:30:00,57.9,43.2,29.88,NW,315,0.0,0.0,58,0.00,,---,0.00,VWS V13.01,2013-03-02 05:30:00,
2013-03-02 00:35:00,57.9,43.2,29.88,NW,315,0.0,0.0,58,0.00,,---,0.00,VWS V13.01,2013-03-02 05:35:00,
2013-03-02 00:40:00,57.7,43.1,29.89,WNW,292,0.0,0.0,58,0.00,,---,0.00,VWS V13.01,2013-03-02 05:40:00,
2013-03-02 00:45:00,57.7,43.5,29.88,WNW,292,0.0,0.0,59,0.00,,---,0.00,VWS V13.01,2013-03-02 05:45:00,
2013-03-02 00:50:00,57.7,43.5,29.88,NW,315,0.0,0.0,59,0.00,,---,0.00,VWS V13.01,2013-03-02 05:50:00,
2013-03-02 00:55:00,57.6,43.4,29.88,NW,315,0.0,0.0,59,0.00,,---,0.00,VWS V13.01,2013-03-02 05:55:00,
2013-03-02 01:00:00,57.6,43.4,29.88,WSW,248,0.0,0.0,59,0.00,,---,0.00,VWS V13.01,2013-03-02 06:00:00,
2013-03-02 01:05:00,57.4,43.2,29.88,WNW,292,0.0,0.0,59,0.00,,---,0.00,VWS V13.01,2013-03-02 06:05:00,
2013-03-02 01:10:00,57.6,43.4,29.88,NW,315,0.0,0.0,59,0.00,,---,0.00,VWS V13.01,2013-03-02 06:10:00,
2013-03-02 01:15:00,57.4,43.2,29.88,WNW,292,0.0,0.0,59,0.00,,---,0.00,VWS V13.01,2013-03-02 06:15:00,
2013-03-02 01:20:00,57.4,43.2,29.88,North,0,0.0,0.0,59,0.00,,---,0.00,VWS V13.01,2013-03-02 06:20:00,
2013-03-02 01:25:00,57.4,43.2,29.88,WNW,292,0.0,0.0,59,0.00,,---,0.00,VWS V13.01,2013-03-02 06:25:00,
2013-03-02 01:30:00,57.4,43.2,29.88,WNW,292,0.0,0.0,59,0.00,,---,0.00,VWS V13.01,2013-03-02 06:30:00,
2013-03-02 01:35:00,57.2,43.0,29.88,WNW,292,0.0,0.0,59,0.00,,---,0.00,VWS V13.01,2013-03-02 06:35:00,
2013-03-02 01:40:00,57.4,43.2,29.88,West,270,0.0,0.0,59,0.00,,---,0.00,VWS V13.01,2013-03-02 06:40:00,
2013-03-02 01:45:00,57.2,43.0,29.88,WNW,292,0.0,0.0,59,0.00,,---,0.00,VWS V13.01,2013-03-02 06:45:00,
2013-03-02 01:50:00,57.0,42.8,29.88,NW,315,0.0,0.0,59,0.00,,---,0.00,VWS V13.01,2013-03-02 06:50:00,
2013-03-02 01:55:00,57.0,42.4,29.88,West,270,0.0,0.0,58,0.00,,---,0.00,VWS V13.01,2013-03-02 06:55:00,
2013-03-02 02:00:00,57.0,42.4,29.88,WNW,292,0.0,0.0,58,0.00,,---,0.00,VWS V13.01,2013-03-02 07:00:00,
2013-03-02 02:05:00,57.0,42.4,29.88,NNW,338,0.0,0.0,58,0.00,,---,0.00,VWS V13.01,2013-03-02 07:05:00,
2013-03-02 02:10:00,57.0,42.0,29.88,WNW,292,0.0,0.0,57,0.00,,---,0.00,VWS V13.01,2013-03-02 07:10:00,
2013-03-02 02:15:00,57.0,42.0,29.88,WNW,292,0.0,0.0,57,0.00,,---,0.00,VWS V13.01,2013-03-02 07:15:00,
2013-03-02 02:20:00,57.0,42.0,29.88,NW,315,0.0,0.0,57,0.00,,---,0.00,VWS V13.01,2013-03-02 07:20:00,
2013-03-02 02:25:00,56.8,41.3,29.88,WSW,248,0.0,0.0,56,0.00,,---,0.00,VWS V13.01,2013-03-02 07:25:00,
2013-03-02 02:30:00,56.8,41.3,29.88,NW,315,0.0,0.0,56,0.00,,---,0.00,VWS V13.01,2013-03-02 07:30:00,
2013-03-02 02:35:00,56.8,41.3,29.88,West,270,0.0,0.0,56,0.00,,---,0.00,VWS V13.01,2013-03-02 07:35:00,
2013-03-02 02:40:00,56.7,41.2,29.87,NW,315,0.0,0.0,56,0.00,,---,0.00,VWS V13.01,2013-03-02 07:40:00,
2013-03-02 02:45:00,56.7,41.2,29.87,WNW,292,0.0,0.0,56,0.00,,---,0.00,VWS V13.01,2013-03-02 07:45:00,
2013-03-02 02:50:00,56.7,41.2,29.87,West,270,0.0,0.0,56,0.00,,---,0.00,VWS V13.01,2013-03-02 07:50:00,
2013-03-02 02:55:00,56.7,41.2,29.87,WNW,292,0.0,0.0,56,0.00,,---,0.00,VWS V13.01,2013-03-02 07:55:00,
2013-03-02 03:00:00,56.5,40.5,29.88,NNW,338,0.0,0.0,55,0.00,,---,0.00,VWS V13.01,2013-03-02 08:00:00,
2013-03-02 03:05:00,56.3,40.4,29.88,NW,315,0.0,0.0,55,0.00,,---,0.00,VWS V13.01,2013-03-02 08:05:00,
2013-03-02 03:10:00,56.3,40.4,29.88,North,0,0.0,0.0,55,0.00,,---,0.00,VWS V13.01,2013-03-02 08:10:00,
2013-03-02 03:15:00,56.3,40.4,29.88,SW,225,0.0,0.0,55,0.00,,---,0.00,VWS V13.01,2013-03-02 08:15:00,
2013-03-02 03:20:00,56.1,39.7,29.87,NW,315,0.0,0.0,54,0.00,,---,0.00,VWS V13.01,2013-03-02 08:20:00,
2013-03-02 03:25:00,56.1,40.2,29.87,West,270,0.0,0.0,55,0.00,,---,0.00,VWS V13.01,2013-03-02 08:25:00,
2013-03-02 03:30:00,56.1,39.7,29.87,West,270,0.0,0.0,54,0.00,,---,0.00,VWS V13.01,2013-03-02 08:30:00,
2013-03-02 03:35:00,56.1,39.7,29.88,WNW,292,0.0,0.0,54,0.00,,---,0.00,VWS V13.01,2013-03-02 08:35:00,
2013-03-02 03:40:00,56.1,39.7,29.88,WNW,292,0.0,0.0,54,0.00,,---,0.00,VWS V13.01,2013-03-02 08:40:00,
2013-03-02 03:45:00,56.1,39.7,29.88,NW,315,0.0,0.0,54,0.00,,---,0.00,VWS V13.01,2013-03-02 08:45:00,
2013-03-02 03:50:00,56.1,39.7,29.88,NW,315,0.0,0.0,54,0.00,,---,0.00,VWS V13.01,2013-03-02 08:50:00,
2013-03-02 03:55:00,56.1,39.7,29.88,NW,315,0.0,0.0,54,0.00,,---,0.00,VWS V13.01,2013-03-02 08:55:00,
2013-03-02 04:00:00,56.1,39.7,29.88,NW,315,0.0,0.0,54,0.00,,---,0.00,VWS V13.01,2013-03-02 09:00:00,
2013-03-02 04:05:00,56.1,39.7,29.88,WNW,292,0.0,0.0,54,0.00,,---,0.00,VWS V13.01,2013-03-02 09:05:00,
2013-03-02 04:10:00,56.1,39.7,29.88,SW,225,0.0,0.0,54,0.00,,---,0.00,VWS V13.01,2013-03-02 09:10:00,
2013-03-02 04:15:00,56.1,39.7,29.88,West,270,0.0,0.0,54,0.00,,---,0.00,VWS V13.01,2013-03-02 09:15:00,
2013-03-02 04:20:00,56.1,39.7,29.88,SW,225,0.0,0.0,54,0.00,,---,0.00,VWS V13.01,2013-03-02 09:20:00,
2013-03-02 04:25:00,56.1,40.2,29.88,WNW,292,0.0,0.0,55,0.00,,---,0.00,VWS V13.01,2013-03-02 09:25:00,
2013-03-02 04:30:00,56.1,40.2,29.88,WNW,292,0.0,0.0,55,0.00,,---,0.00,VWS V13.01,2013-03-02 09:30:00,
2013-03-02 04:35:00,55.9,40.0,29.88,WSW,248,0.0,0.0,55,0.00,,---,0.00,VWS V13.01,2013-03-02 09:35:00,
2013-03-02 04:40:00,55.8,39.8,29.88,WNW,292,0.0,0.0,55,0.00,,---,0.00,VWS V13.01,2013-03-02 09:40:00,
2013-03-02 04:45:00,55.8,39.8,29.88,West,270,0.0,0.0,55,0.00,,---,0.00,VWS V13.01,2013-03-02 09:45:00,
2013-03-02 04:50:00,55.6,39.7,29.88,NW,315,0.0,0.0,55,0.00,,---,0.00,VWS V13.01,2013-03-02 09:50:00,
2013-03-02 04:55:00,55.6,39.7,29.88,NW,315,0.0,0.0,55,0.00,,---,0.00,VWS V13.01,2013-03-02 09:55:00,
2013-03-02 05:00:00,55.6,39.7,29.88,WNW,292,0.0,0.0,55,0.00,,---,0.00,VWS V13.01,2013-03-02 10:00:00,
2013-03-02 05:05:00,55.6,39.7,29.88,WNW,292,0.0,0.0,55,0.00,,---,0.00,VWS V13.01,2013-03-02 10:05:00,
2013-03-02 05:10:00,55.6,39.7,29.88,WNW,292,0.0,0.0,55,0.00,,---,0.00,VWS V13.01,2013-03-02 10:10:00,
2013-03-02 05:16:00,55.6,40.2,29.88,WNW,292,0.0,0.0,56,0.00,,---,0.00,VWS V13.01,2013-03-02 10:16:00,
2013-03-02 05:21:00,55.6,40.2,29.88,West,270,0.0,0.0,56,0.00,,---,0.00,VWS V13.01,2013-03-02 10:21:00,
2013-03-02 05:26:00,55.6,40.2,29.89,NNW,338,0.0,0.0,56,0.00,,---,0.00,VWS V13.01,2013-03-02 10:26:00,
2013-03-02 05:31:00,55.6,40.2,29.89,NW,315,0.0,0.0,56,0.00,,---,0.00,VWS V13.01,2013-03-02 10:31:00,
2013-03-02 05:36:00,55.6,40.2,29.89,NW,315,0.0,0.0,56,0.00,,---,0.00,VWS V13.01,2013-03-02 10:36:00,
2013-03-02 05:41:00,55.6,40.2,29.89,WNW,292,0.0,0.0,56,0.00,,---,0.00,VWS V13.01,2013-03-02 10:41:00,
2013-03-02 05:46:00,55.6,40.2,29.89,NNW,338,0.0,0.0,56,0.00,,---,0.00,VWS V13.01,2013-03-02 10:46:00,
2013-03-02 05:51:00,55.8,40.3,29.89,NW,315,0.0,0.0,56,0.00,,---,0.00,VWS V13.01,2013-03-02 10:51:00,
2013-03-02 05:56:00,55.8,40.3,29.90,WNW,292,0.0,0.0,56,0.00,,---,0.00,VWS V13.01,2013-03-02 10:56:00,
2013-03-02 06:01:00,55.8,40.3,29.91,West,270,0.0,0.0,56,0.00,,---,0.00,VWS V13.01,2013-03-02 11:01:00,
2013-03-02 06:06:00,55.8,40.3,29.91,NNW,338,0.0,0.0,56,0.00,,---,0.00,VWS V13.01,2013-03-02 11:06:00,
2013-03-02 06:11:00,55.8,40.8,29.91,NNW,338,0.0,0.0,57,0.00,,---,0.00,VWS V13.01,2013-03-02 11:11:00,
2013-03-02 06:16:00,55.9,40.9,29.91,West,270,0.0,0.0,57,0.00,,---,0.00,VWS V13.01,2013-03-02 11:16:00,
2013-03-02 06:21:00,55.9,40.5,29.91,North,0,0.0,0.0,56,0.00,,---,0.00,VWS V13.01,2013-03-02 11:21:00,
2013-03-02 06:26:00,55.8,39.8,29.92,North,0,0.0,0.0,55,0.00,,---,0.00,VWS V13.01,2013-03-02 11:26:00,
2013-03-02 06:31:00,55.8,39.8,29.92,NNW,338,0.0,0.0,55,0.00,,---,0.00,VWS V13.01,2013-03-02 11:31:00,
2013-03-02 06:36:00,55.8,39.8,29.92,NNW,338,0.0,0.0,55,0.00,,---,0.00,VWS V13.01,2013-03-02 11:36:00,
2013-03-02 06:41:00,55.6,39.2,29.92,WNW,292,0.0,0.0,54,0.00,,---,0.00,VWS V13.01,2013-03-02 11:41:00,
2013-03-02 06:46:00,55.6,39.2,29.92,North,0,0.0,0.0,54,0.00,,---,0.00,VWS V13.01,2013-03-02 11:46:00,
2013-03-02 06:51:00,55.6,39.2,29.92,NNW,338,0.0,0.0,54,0.00,,---,0.00,VWS V13.01,2013-03-02 11:51:00,
2013-03-02 06:56:00,55.6,39.2,29.92,NW,315,0.0,0.0,54,0.00,,---,0.00,VWS V13.01,2013-03-02 11:56:00,
2013-03-02 07:01:00,55.6,39.2,29.93,NNW,338,0.0,0.0,54,0.00,,---,0.00,VWS V13.01,2013-03-02 12:01:00,
2013-03-02 07:06:00,55.6,39.2,29.92,NNW,338,0.0,0.0,54,0.00,,---,0.00,VWS V13.01,2013-03-02 12:06:00,
2013-03-02 07:11:00,55.6,39.7,29.93,North,0,0.0,0.0,55,0.00,,---,0.00,VWS V13.01,2013-03-02 12:11:00,
2013-03-02 07:16:00,55.4,39.5,29.93,West,270,0.0,0.0,55,0.00,,---,0.00,VWS V13.01,2013-03-02 12:16:00,
2013-03-02 07:21:00,55.2,39.3,29.93,NW,315,0.0,0.0,55,0.00,,---,0.00,VWS V13.01,2013-03-02 12:21:00,
2013-03-02 07:26:00,55.2,39.3,29.93,North,0,0.0,0.0,55,0.00,,---,0.00,VWS V13.01,2013-03-02 12:26:00,
2013-03-02 07:31:00,55.2,39.3,29.94,NNW,338,0.0,0.0,55,0.00,,---,0.00,VWS V13.01,2013-03-02 12:31:00,
2013-03-02 07:36:00,55.0,39.2,29.93,NW,315,0.0,0.0,55,0.00,,---,0.00,VWS V13.01,2013-03-02 12:36:00,
2013-03-02 07:41:00,55.2,39.3,29.93,NNW,338,0.0,0.0,55,0.00,,---,0.00,VWS V13.01,2013-03-02 12:41:00,
2013-03-02 07:46:00,55.0,39.2,29.93,NNW,338,0.0,0.0,55,0.00,,---,0.00,VWS V13.01,2013-03-02 12:46:00,
2013-03-02 07:51:00,55.0,38.7,29.94,NE,45,0.0,0.0,54,0.00,,---,0.00,VWS V13.01,2013-03-02 12:51:00,
2013-03-02 07:56:00,55.0,38.7,29.94,NNE,22,0.0,0.0,54,0.00,,---,0.00,VWS V13.01,2013-03-02 12:56:00,
2013-03-02 08:01:00,55.0,38.2,29.95,WSW,248,0.0,0.0,53,0.00,,---,0.00,VWS V13.01,2013-03-02 13:01:00,
2013-03-02 08:06:00,55.0,38.2,29.94,NNW,338,0.0,0.0,53,0.00,,---,0.00,VWS V13.01,2013-03-02 13:06:00,
2013-03-02 08:11:00,54.9,37.6,29.94,NNW,338,0.0,0.0,52,0.00,,---,0.00,VWS V13.01,2013-03-02 13:11:00,
2013-03-02 08:16:00,54.9,37.1,29.94,NW,315,0.0,0.0,51,0.00,,---,0.00,VWS V13.01,2013-03-02 13:16:00,
2013-03-02 08:21:00,54.9,36.6,29.95,NNW,338,0.0,0.0,50,0.00,,---,0.00,VWS V13.01,2013-03-02 13:21:00,
2013-03-02 08:26:00,54.9,36.1,29.95,NW,315,0.0,0.0,49,0.00,,---,0.00,VWS V13.01,2013-03-02 13:26:00,
2013-03-02 08:30:00,54.9,36.1,29.95,NNW,338,0.0,0.0,49,0.00,,---,0.00,VWS V13.01,2013-03-02 13:30:00,
2013-03-02 08:35:00,54.9,36.1,29.94,NW,315,0.0,0.0,49,0.00,,---,0.00,VWS V13.01,2013-03-02 13:35:00,
2013-03-02 08:40:00,54.9,35.6,29.94,North,0,0.0,0.0,48,0.00,,---,0.00,VWS V13.01,2013-03-02 13:40:00,
2013-03-02 08:45:00,54.9,35.6,29.93,NNW,338,0.0,0.0,48,0.00,,---,0.00,VWS V13.01,2013-03-02 13:45:00,
2013-03-02 08:50:00,55.0,35.7,29.94,NW,315,0.0,0.0,48,0.00,,---,0.00,VWS V13.01,2013-03-02 13:50:00,
2013-03-02 08:55:00,55.2,35.4,29.94,NW,315,0.0,0.0,47,0.00,,---,0.00,VWS V13.01,2013-03-02 13:55:00,
2013-03-02 09:00:00,55.6,35.2,29.93,NNW,338,0.0,0.0,46,0.00,,---,0.00,VWS V13.01,2013-03-02 14:00:00,
2013-03-02 09:05:00,55.6,35.2,29.94,NNW,338,0.0,0.0,46,0.00,,---,0.00,VWS V13.01,2013-03-02 14:05:00,
2013-03-02 09:10:00,55.6,35.2,29.94,North,0,0.0,0.0,46,0.00,,---,0.00,VWS V13.01,2013-03-02 14:10:00,
2013-03-02 09:15:00,55.6,35.7,29.94,North,0,0.0,0.0,47,0.00,,---,0.00,VWS V13.01,2013-03-02 14:15:00,
2013-03-02 09:20:00,55.9,36.0,29.94,NE,45,0.0,0.0,47,0.00,,---,0.00,VWS V13.01,2013-03-02 14:20:00,
2013-03-02 09:25:00,56.1,36.2,29.95,NE,45,0.0,0.0,47,0.00,,---,0.00,VWS V13.01,2013-03-02 14:25:00,
2013-03-02 09:30:00,56.7,36.7,29.94,NE,45,0.0,0.0,47,0.00,,---,0.00,VWS V13.01,2013-03-02 14:30:00,
2013-03-02 09:35:00,56.8,36.3,29.94,NNE,22,0.0,0.0,46,0.00,,---,0.00,VWS V13.01,2013-03-02 14:35:00,
2013-03-02 09:40:00,56.8,36.3,29.93,NW,315,0.0,0.0,46,0.00,,---,0.00,VWS V13.01,2013-03-02 14:40:00,
2013-03-02 09:45:00,57.4,36.2,29.93,NNW,338,0.0,0.0,45,0.00,,---,0.00,VWS V13.01,2013-03-02 14:45:00,
2013-03-02 09:50:00,57.7,36.0,29.94,West,270,0.0,0.0,44,0.00,,---,0.00,VWS V13.01,2013-03-02 14:50:00,
2013-03-02 09:55:00,57.9,35.0,29.94,NW,315,0.0,0.0,42,0.00,,---,0.00,VWS V13.01,2013-03-02 14:55:00,
2013-03-02 10:00:00,57.9,34.4,29.93,NNW,338,0.0,0.0,41,0.00,,---,0.00,VWS V13.01,2013-03-02 15:00:00,
2013-03-02 10:05:00,58.5,34.2,29.94,WNW,292,0.0,0.0,40,0.00,,---,0.00,VWS V13.01,2013-03-02 15:05:00,
2013-03-02 10:10:00,58.6,33.1,29.94,NNE,22,0.0,0.0,38,0.00,,---,0.00,VWS V13.01,2013-03-02 15:10:00,
2013-03-02 10:15:00,58.6,32.5,29.94,North,0,0.0,0.0,37,0.00,,---,0.00,VWS V13.01,2013-03-02 15:15:00,
2013-03-02 10:20:00,58.8,32.0,29.94,West,270,0.0,0.0,36,0.00,,---,0.00,VWS V13.01,2013-03-02 15:20:00,
2013-03-02 10:25:00,59.0,32.1,29.94,SW,225,0.0,0.0,36,0.00,,---,0.00,VWS V13.01,2013-03-02 15:25:00,
2013-03-02 10:30:00,59.2,32.3,29.94,North,0,0.0,0.0,36,0.00,,---,0.00,VWS V13.01,2013-03-02 15:30:00,
2013-03-02 10:35:00,59.5,32.6,29.94,West,270,0.0,0.0,36,0.00,,---,0.00,VWS V13.01,2013-03-02 15:35:00,
2013-03-02 10:40:00,59.9,32.2,29.94,NNW,338,0.0,0.0,35,0.00,,---,0.00,VWS V13.01,2013-03-02 15:40:00,
2013-03-02 10:45:00,60.3,31.8,29.93,NNW,338,0.0,0.0,34,0.00,,---,0.00,VWS V13.01,2013-03-02 15:45:00,
2013-03-02 10:50:00,60.3,31.1,29.93,NW,315,0.0,0.0,33,0.00,,---,0.00,VWS V13.01,2013-03-02 15:50:00,
2013-03-02 10:55:00,60.3,31.1,29.93,NW,315,0.0,0.0,33,0.00,,---,0.00,VWS V13.01,2013-03-02 15:55:00,
2013-03-02 11:00:00,60.3,30.3,29.93,NNW,338,0.0,0.0,32,0.00,,---,0.00,VWS V13.01,2013-03-02 16:00:00,
2013-03-02 11:05:00,60.4,31.2,29.93,NNW,338,0.0,0.0,33,0.00,,---,0.00,VWS V13.01,2013-03-02 16:05:00,
2013-03-02 11:10:00,61.2,31.1,29.93,NNW,338,0.0,0.0,32,0.00,,---,0.00,VWS V13.01,2013-03-02 16:10:00,
2013-03-02 11:15:00,61.2,31.1,29.93,WNW,292,0.0,0.0,32,0.00,,---,0.00,VWS V13.01,2013-03-02 16:15:00,
2013-03-02 11:20:00,61.5,31.4,29.93,NNW,338,0.0,0.0,32,0.00,,---,0.00,VWS V13.01,2013-03-02 16:20:00,
2013-03-02 11:25:00,61.5,30.6,29.93,NW,315,0.0,0.0,31,0.00,,---,0.00,VWS V13.01,2013-03-02 16:25:00,
2013-03-02 11:30:00,61.7,30.8,29.93,South,180,0.0,0.0,31,0.00,,---,0.00,VWS V13.01,2013-03-02 16:30:00,
2013-03-02 11:35:00,62.1,31.1,29.93,North,0,0.0,0.0,31,0.00,,---,0.00,VWS V13.01,2013-03-02 16:35:00,
2013-03-02 11:40:00,62.4,31.4,29.93,NW,315,0.0,0.0,31,0.00,,---,0.00,VWS V13.01,2013-03-02 16:40:00,
2013-03-02 11:45:00,62.8,31.7,29.93,WNW,292,0.0,0.0,31,0.00,,---,0.00,VWS V13.01,2013-03-02 16:45:00,
2013-03-02 11:50:00,62.8,30.9,29.92,NNW,338,0.0,0.0,30,0.00,,---,0.00,VWS V13.01,2013-03-02 16:50:00,
2013-03-02 11:55:00,62.2,29.6,29.92,NW,315,0.0,0.0,29,0.00,,---,0.00,VWS V13.01,2013-03-02 16:55:00,
2013-03-02 12:00:00,62.2,30.5,29.92,North,0,0.0,0.0,30,0.00,,---,0.00,VWS V13.01,2013-03-02 17:00:00,
2013-03-02 12:05:00,62.6,30.8,29.91,ENE,68,0.0,0.0,30,0.00,,---,0.00,VWS V13.01,2013-03-02 17:05:00,
2013-03-02 12:10:00,63.7,31.7,29.91,NW,315,0.0,0.0,30,0.00,,---,0.00,VWS V13.01,2013-03-02 17:10:00,
2013-03-02 12:15:00,64.2,33.0,29.90,WNW,292,0.0,0.0,31,0.00,,---,0.00,VWS V13.01,2013-03-02 17:15:00,
2013-03-02 12:20:00,64.6,33.3,29.90,NNW,338,0.0,0.0,31,0.00,,---,0.00,VWS V13.01,2013-03-02 17:20:00,
2013-03-02 12:25:00,65.8,33.6,29.90,North,0,0.0,0.0,30,0.00,,---,0.00,VWS V13.01,2013-03-02 17:25:00,
2013-03-02 12:30:00,65.8,33.6,29.90,NNW,338,0.0,0.0,30,0.00,,---,0.00,VWS V13.01,2013-03-02 17:30:00,
2013-03-02 12:35:00,66.0,33.7,29.90,WNW,292,0.0,0.0,30,0.00,,---,0.00,VWS V13.01,2013-03-02 17:35:00,
2013-03-02 12:40:00,66.2,33.9,29.90,NNW,338,0.0,0.0,30,0.00,,---,0.00,VWS V13.01,2013-03-02 17:40:00,
2013-03-02 12:45:00,66.2,33.9,29.90,NNW,338,0.0,0.0,30,0.00,,---,0.00,VWS V13.01,2013-03-02 17:45:00,
2013-03-02 12:50:00,65.5,33.3,29.90,North,0,0.0,0.0,30,0.00,,---,0.00,VWS V13.01,2013-03-02 17:50:00,
2013-03-02 12:55:00,65.7,34.2,29.90,WNW,292,0.0,0.0,31,0.00,,---,0.00,VWS V13.01,2013-03-02 17:55:00,
2013-03-02 13:00:00,65.7,34.2,29.90,NNW,338,0.0,0.0,31,0.00,,---,0.00,VWS V13.01,2013-03-02 18:00:00,
2013-03-02 13:05:00,65.3,34.7,29.90,NW,315,0.0,0.0,32,0.00,,---,0.00,VWS V13.01,2013-03-02 18:05:00,
2013-03-02 13:10:00,65.3,34.7,29.89,West,270,0.0,0.0,32,0.00,,---,0.00,VWS V13.01,2013-03-02 18:10:00,
2013-03-02 13:15:00,65.3,34.7,29.89,NNW,338,0.0,0.0,32,0.00,,---,0.00,VWS V13.01,2013-03-02 18:15:00,
2013-03-02 13:20:00,65.5,35.6,29.89,WNW,292,0.0,0.0,33,0.00,,---,0.00,VWS V13.01,2013-03-02 18:20:00,
2013-03-02 13:25:00,65.7,35.8,29.88,NW,315,0.0,0.0,33,0.00,,---,0.00,VWS V13.01,2013-03-02 18:25:00,
2013-03-02 13:30:00,65.8,36.7,29.88,West,270,0.0,0.0,34,0.00,,---,0.00,VWS V13.01,2013-03-02 18:30:00,
2013-03-02 13:35:00,66.2,37.0,29.88,NNW,338,0.0,0.0,34,0.00,,---,0.00,VWS V13.01,2013-03-02 18:35:00,
2013-03-02 13:40:00,66.4,37.2,29.88,NNW,338,0.0,0.0,34,0.00,,---,0.00,VWS V13.01,2013-03-02 18:40:00,
2013-03-02 13:45:00,66.7,37.5,29.88,West,270,0.0,0.0,34,0.00,,---,0.00,VWS V13.01,2013-03-02 18:45:00,
2013-03-02 13:50:00,66.9,37.7,29.87,NNW,338,0.0,0.0,34,0.00,,---,0.00,VWS V13.01,2013-03-02 18:50:00,
2013-03-02 13:55:00,67.1,37.8,29.87,WNW,292,0.0,0.0,34,0.00,,---,0.00,VWS V13.01,2013-03-02 18:55:00,
2013-03-02 14:00:00,67.1,37.1,29.86,WNW,292,0.0,0.0,33,0.00,,---,0.00,VWS V13.01,2013-03-02 19:00:00,
2013-03-02 14:05:00,67.1,37.1,29.87,WNW,292,0.0,0.0,33,0.00,,---,0.00,VWS V13.01,2013-03-02 19:05:00,
2013-03-02 14:10:00,66.6,37.3,29.87,NNW,338,0.0,0.0,34,0.00,,---,0.00,VWS V13.01,2013-03-02 19:10:00,
2013-03-02 14:15:00,66.6,37.3,29.86,WNW,292,0.0,0.0,34,0.00,,---,0.00,VWS V13.01,2013-03-02 19:15:00,
2013-03-02 14:20:00,66.7,38.2,29.87,WNW,292,0.0,0.0,35,0.00,,---,0.00,VWS V13.01,2013-03-02 19:20:00,
2013-03-02 14:25:00,67.1,37.8,29.87,NW,315,0.0,0.0,34,0.00,,---,0.00,VWS V13.01,2013-03-02 19:25:00,
2013-03-02 14:30:00,67.8,37.7,29.87,NNE,22,0.0,0.0,33,0.00,,---,0.00,VWS V13.01,2013-03-02 19:30:00,
2013-03-02 14:35:00,68.0,37.8,29.87,NNW,338,0.0,0.0,33,0.00,,---,0.00,VWS V13.01,2013-03-02 19:35:00,
2013-03-02 14:40:00,68.2,37.2,29.87,WNW,292,0.0,0.0,32,0.00,,---,0.00,VWS V13.01,2013-03-02 19:40:00,
2013-03-02 14:45:00,67.8,36.1,29.87,West,270,0.0,0.0,31,0.00,,---,0.00,VWS V13.01,2013-03-02 19:45:00,
2013-03-02 14:50:00,67.6,36.0,29.88,WNW,292,0.0,0.0,31,0.00,,---,0.00,VWS V13.01,2013-03-02 19:50:00,
2013-03-02 14:55:00,66.9,35.3,29.88,West,270,0.0,0.0,31,0.00,,---,0.00,VWS V13.01,2013-03-02 19:55:00,
2013-03-02 15:00:00,67.1,35.5,29.87,NW,315,0.0,0.0,31,0.00,,---,0.00,VWS V13.01,2013-03-02 20:00:00,
2013-03-02 15:05:00,67.1,35.5,29.87,WNW,292,0.0,0.0,31,0.00,,---,0.00,VWS V13.01,2013-03-02 20:05:00,
2013-03-02 15:10:00,67.1,34.7,29.87,North,0,0.0,0.0,30,0.00,,---,0.00,VWS V13.01,2013-03-02 20:10:00,
2013-03-02 15:15:00,66.9,35.3,29.87,WNW,292,0.0,0.0,31,0.00,,---,0.00,VWS V13.01,2013-03-02 20:15:00,
2013-03-02 15:20:00,66.7,34.3,29.87,West,270,0.0,0.0,30,0.00,,---,0.00,VWS V13.01,2013-03-02 20:20:00,
2013-03-02 15:25:00,66.6,35.0,29.87,WNW,292,0.0,0.0,31,0.00,,---,0.00,VWS V13.01,2013-03-02 20:25:00,
2013-03-02 15:30:00,66.6,35.0,29.88,NNW,338,0.0,0.0,31,0.00,,---,0.00,VWS V13.01,2013-03-02 20:30:00,
2013-03-02 15:35:00,66.6,34.2,29.88,NW,315,0.0,0.0,30,0.00,,---,0.00,VWS V13.01,2013-03-02 20:35:00,
2013-03-02 15:40:00,65.8,32.7,29.87,WSW,248,0.0,0.0,29,0.00,,---,0.00,VWS V13.01,2013-03-02 20:40:00,
2013-03-02 15:45:00,65.8,33.6,29.88,WNW,292,0.0,0.0,30,0.00,,---,0.00,VWS V13.01,2013-03-02 20:45:00,
2013-03-02 15:50:00,65.5,33.3,29.88,NNW,338,0.0,0.0,30,0.00,,---,0.00,VWS V13.01,2013-03-02 20:50:00,
2013-03-02 15:55:00,65.3,33.9,29.88,WNW,292,0.0,0.0,31,0.00,,---,0.00,VWS V13.01,2013-03-02 20:55:00,
2013-03-02 16:00:00,64.8,33.5,29.87,West,270,0.0,0.0,31,0.00,,---,0.00,VWS V13.01,2013-03-02 21:00:00,
2013-03-02 16:05:00,64.4,33.1,29.87,WNW,292,0.0,0.0,31,0.00,,---,0.00,VWS V13.01,2013-03-02 21:05:00,
2013-03-02 16:10:00,64.0,32.8,29.87,WSW,248,0.0,0.0,31,0.00,,---,0.00,VWS V13.01,2013-03-02 21:10:00,
2013-03-02 16:15:00,63.9,32.7,29.87,NNE,22,0.0,0.0,31,0.00,,---,0.00,VWS V13.01,2013-03-02 21:15:00,
2013-03-02 16:20:00,63.5,33.1,29.87,SSW,202,0.0,0.0,32,0.00,,---,0.00,VWS V13.01,2013-03-02 21:20:00,
2013-03-02 16:25:00,63.3,33.0,29.88,WNW,292,0.0,0.0,32,0.00,,---,0.00,VWS V13.01,2013-03-02 21:25:00,
2013-03-02 16:30:00,63.5,33.9,29.87,WNW,292,0.0,0.0,33,0.00,,---,0.00,VWS V13.01,2013-03-02 21:30:00,
2013-03-02 16:35:00,63.7,34.1,29.87,NW,315,0.0,0.0,33,0.00,,---,0.00,VWS V13.01,2013-03-02 21:35:00,
2013-03-02 16:40:00,63.5,33.9,29.88,WNW,292,0.0,0.0,33,0.00,,---,0.00,VWS V13.01,2013-03-02 21:40:00,
2013-03-02 16:45:00,63.3,33.8,29.88,WNW,292,0.0,0.0,33,0.00,,---,0.00,VWS V13.01,2013-03-02 21:45:00,
2013-03-02 16:50:00,63.3,34.5,29.88,NW,315,0.0,0.0,34,0.00,,---,0.00,VWS V13.01,2013-03-02 21:50:00,
2013-03-02 16:55:00,63.1,34.3,29.88,WNW,292,0.0,0.0,34,0.00,,---,0.00,VWS V13.01,2013-03-02 21:55:00,
2013-03-02 17:00:00,63.1,35.1,29.88,NW,315,0.0,0.0,35,0.00,,---,0.00,VWS V13.01,2013-03-02 22:00:00,
2013-03-02 17:05:00,63.0,34.9,29.88,NNW,338,0.0,0.0,35,0.00,,---,0.00,VWS V13.01,2013-03-02 22:05:00,
2013-03-02 17:10:00,62.8,34.8,29.88,WNW,292,0.0,0.0,35,0.00,,---,0.00,VWS V13.01,2013-03-02 22:10:00,
2013-03-02 17:15:00,62.4,34.4,29.88,WNW,292,0.0,0.0,35,0.00,,---,0.00,VWS V13.01,2013-03-02 22:15:00,
2013-03-02 17:20:00,62.6,34.6,29.88,WNW,292,0.0,0.0,35,0.00,,---,0.00,VWS V13.01,2013-03-02 22:20:00,
2013-03-02 17:25:00,62.4,35.1,29.89,West,270,0.0,0.0,36,0.00,,---,0.00,VWS V13.01,2013-03-02 22:25:00,
2013-03-02 17:30:00,62.2,35.0,29.89,WNW,292,0.0,0.0,36,0.00,,---,0.00,VWS V13.01,2013-03-02 22:30:00,
2013-03-02 17:35:00,62.1,34.8,29.89,West,270,0.0,0.0,36,0.00,,---,0.00,VWS V13.01,2013-03-02 22:35:00,
2013-03-02 17:40:00,61.9,34.7,29.89,West,270,0.0,0.0,36,0.00,,---,0.00,VWS V13.01,2013-03-02 22:40:00,
2013-03-02 17:45:00,61.7,35.2,29.89,NNW,338,0.0,0.0,37,0.00,,---,0.00,VWS V13.01,2013-03-02 22:45:00,
2013-03-02 17:50:00,61.5,35.0,29.89,West,270,0.0,0.0,37,0.00,,---,0.00,VWS V13.01,2013-03-02 22:50:00,
2013-03-02 17:55:00,61.3,34.9,29.89,West,270,0.0,0.0,37,0.00,,---,0.00,VWS V13.01,2013-03-02 22:55:00,
2013-03-02 18:00:00,61.2,35.4,29.90,WNW,292,0.0,0.0,38,0.00,,---,0.00,VWS V13.01,2013-03-02 23:00:00,
2013-03-02 18:05:00,61.0,35.2,29.90,North,0,0.0,0.0,38,0.00,,---,0.00,VWS V13.01,2013-03-02 23:05:00,
2013-03-02 18:10:00,60.8,35.1,29.90,NW,315,0.0,0.0,38,0.00,,---,0.00,VWS V13.01,2013-03-02 23:10:00,
2013-03-02 18:15:00,60.4,34.7,29.90,NW,315,0.0,0.0,38,0.00,,---,0.00,VWS V13.01,2013-03-02 23:15:00,
2013-03-02 18:20:00,60.3,35.2,29.90,NW,315,0.0,0.0,39,0.00,,---,0.00,VWS V13.01,2013-03-02 23:20:00,
2013-03-02 18:25:00,60.1,35.1,29.90,NW,315,0.0,0.0,39,0.00,,---,0.00,VWS V13.01,2013-03-02 23:25:00,
2013-03-02 18:30:00,59.9,36.2,29.90,NNW,338,0.0,0.0,41,0.00,,---,0.00,VWS V13.01,2013-03-02 23:30:00,
2013-03-02 18:35:00,59.7,36.0,29.91,WSW,248,0.0,0.0,41,0.00,,---,0.00,VWS V13.01,2013-03-02 23:35:00,
2013-03-02 18:40:00,59.5,35.8,29.91,West,270,0.0,0.0,41,0.00,,---,0.00,VWS V13.01,2013-03-02 23:40:00,
2013-03-02 18:45:00,59.2,35.5,29.91,NW,315,0.0,0.0,41,0.00,,---,0.00,VWS V13.01,2013-03-02 23:45:00,
2013-03-02 18:50:00,58.6,34.4,29.91,WNW,292,0.0,0.0,40,0.00,,---,0.00,VWS V13.01,2013-03-02 23:50:00,
2013-03-02 18:55:00,58.6,34.4,29.92,WNW,292,0.0,0.0,40,0.00,,---,0.00,VWS V13.01,2013-03-02 23:55:00,
2013-03-02 19:00:00,58.5,34.2,29.92,North,0,0.0,0.0,40,0.00,,---,0.00,VWS V13.01,2013-03-03 00:00:00,
2013-03-02 19:05:00,58.3,34.7,29.92,North,0,0.0,0.0,41,0.00,,---,0.00,VWS V13.01,2013-03-03 00:05:00,
2013-03-02 19:10:00,58.1,34.5,29.92,WNW,292,0.0,0.0,41,0.00,,---,0.00,VWS V13.01,2013-03-03 00:10:00,
2013-03-02 19:15:00,57.9,35.0,29.92,WNW,292,0.0,0.0,42,0.00,,---,0.00,VWS V13.01,2013-03-03 00:15:00,
2013-03-02 19:20:00,57.9,35.6,29.93,West,270,0.0,0.0,43,0.00,,---,0.00,VWS V13.01,2013-03-03 00:20:00,
2013-03-02 19:25:00,57.7,35.4,29.93,NW,315,0.0,0.0,43,0.00,,---,0.00,VWS V13.01,2013-03-03 00:25:00,
2013-03-02 19:30:00,57.6,35.2,29.93,WNW,292,0.0,0.0,43,0.00,,---,0.00,VWS V13.01,2013-03-03 00:30:00,
2013-03-02 19:35:00,57.6,35.8,29.93,NW,315,0.0,0.0,44,0.00,,---,0.00,VWS V13.01,2013-03-03 00:35:00,
2013-03-02 19:40:00,57.6,35.8,29.93,West,270,0.0,0.0,44,0.00,,---,0.00,VWS V13.01,2013-03-03 00:40:00,
2013-03-02 19:45:00,57.4,35.7,29.93,West,270,0.0,0.0,44,0.00,,---,0.00,VWS V13.01,2013-03-03 00:45:00,
2013-03-02 19:50:00,57.4,35.7,29.93,WNW,292,0.0,0.0,44,0.00,,---,0.00,VWS V13.01,2013-03-03 00:50:00,
2013-03-02 19:55:00,57.4,35.7,29.93,NW,315,0.0,0.0,44,0.00,,---,0.00,VWS V13.01,2013-03-03 00:55:00,
2013-03-02 20:00:00,57.4,35.7,29.94,NW,315,0.0,0.0,44,0.00,,---,0.00,VWS V13.01,2013-03-03 01:00:00,
2013-03-02 20:05:00,57.2,35.5,29.94,WNW,292,0.0,0.0,44,0.00,,---,0.00,VWS V13.01,2013-03-03 01:05:00,
2013-03-02 20:10:00,57.2,35.5,29.94,NW,315,0.0,0.0,44,0.00,,---,0.00,VWS V13.01,2013-03-03 01:10:00,
2013-03-02 20:15:00,57.0,35.3,29.94,WNW,292,0.0,0.0,44,0.00,,---,0.00,VWS V13.01,2013-03-03 01:15:00,
2013-03-02 20:20:00,56.8,35.7,29.94,WSW,248,0.0,0.0,45,0.00,,---,0.00,VWS V13.01,2013-03-03 01:20:00,
2013-03-02 20:25:00,56.8,35.7,29.93,WSW,248,0.0,0.0,45,0.00,,---,0.00,VWS V13.01,2013-03-03 01:25:00,
2013-03-02 20:30:00,56.8,35.7,29.94,WSW,248,0.0,0.0,45,0.00,,---,0.00,VWS V13.01,2013-03-03 01:30:00,
2013-03-02 20:35:00,56.7,36.1,29.94,West,270,0.0,0.0,46,0.00,,---,0.00,VWS V13.01,2013-03-03 01:35:00,
2013-03-02 20:40:00,56.7,36.1,29.94,WNW,292,0.0,0.0,46,0.00,,---,0.00,VWS V13.01,2013-03-03 01:40:00,
2013-03-02 20:45:00,56.7,36.1,29.94,WNW,292,0.0,0.0,46,0.00,,---,0.00,VWS V13.01,2013-03-03 01:45:00,
2013-03-02 20:50:00,56.5,36.0,29.94,WNW,292,0.0,0.0,46,0.00,,---,0.00,VWS V13.01,2013-03-03 01:50:00,
2013-03-02 20:55:00,56.3,35.8,29.94,WNW,292,0.0,0.0,46,0.00,,---,0.00,VWS V13.01,2013-03-03 01:55:00,
2013-03-02 21:00:00,56.5,36.0,29.94,WSW,248,0.0,0.0,46,0.00,,---,0.00,VWS V13.01,2013-03-03 02:00:00,
2013-03-02 21:05:00,56.3,35.8,29.94,WSW,248,0.0,0.0,46,0.00,,---,0.00,VWS V13.01,2013-03-03 02:05:00,
2013-03-02 21:10:00,56.3,35.8,29.95,WSW,248,0.0,0.0,46,0.00,,---,0.00,VWS V13.01,2013-03-03 02:10:00,
2013-03-02 21:15:00,56.3,36.3,29.94,WSW,248,0.0,0.0,47,0.00,,---,0.00,VWS V13.01,2013-03-03 02:15:00,
2013-03-02 21:20:00,56.3,36.3,29.94,WSW,248,0.0,0.0,47,0.00,,---,0.00,VWS V13.01,2013-03-03 02:20:00,
2013-03-02 21:25:00,56.1,36.7,29.94,WSW,248,0.0,0.0,48,0.00,,---,0.00,VWS V13.01,2013-03-03 02:25:00,
2013-03-02 21:30:00,56.1,36.2,29.94,WSW,248,0.0,0.0,47,0.00,,---,0.00,VWS V13.01,2013-03-03 02:30:00,
2013-03-02 21:35:00,56.1,36.7,29.94,WSW,248,0.0,0.0,48,0.00,,---,0.00,VWS V13.01,2013-03-03 02:35:00,
2013-03-02 21:40:00,56.1,37.2,29.95,WSW,248,0.0,0.0,49,0.00,,---,0.00,VWS V13.01,2013-03-03 02:40:00,
2013-03-02 21:45:00,56.1,37.2,29.95,West,270,0.0,0.0,49,0.00,,---,0.00,VWS V13.01,2013-03-03 02:45:00,
2013-03-02 21:50:00,56.1,37.2,29.95,WNW,292,0.0,0.0,49,0.00,,---,0.00,VWS V13.01,2013-03-03 02:50:00,
2013-03-02 21:55:00,55.9,37.1,29.95,WNW,292,0.0,0.0,49,0.00,,---,0.00,VWS V13.01,2013-03-03 02:55:00,
2013-03-02 22:00:00,55.9,37.1,29.95,WNW,292,0.0,0.0,49,0.00,,---,0.00,VWS V13.01,2013-03-03 03:00:00,
2013-03-02 22:05:00,55.9,37.1,29.94,WNW,292,0.0,0.0,49,0.00,,---,0.00,VWS V13.01,2013-03-03 03:05:00,
2013-03-02 22:10:00,55.8,36.9,29.94,WNW,292,0.0,0.0,49,0.00,,---,0.00,VWS V13.01,2013-03-03 03:10:00,
2013-03-02 22:15:00,55.8,37.4,29.94,WNW,292,0.0,0.0,50,0.00,,---,0.00,VWS V13.01,2013-03-03 03:15:00,
2013-03-02 22:20:00,55.6,37.2,29.94,WNW,292,0.0,0.0,50,0.00,,---,0.00,VWS V13.01,2013-03-03 03:20:00,
2013-03-02 22:25:00,55.6,37.2,29.94,WNW,292,0.0,0.0,50,0.00,,---,0.00,VWS V13.01,2013-03-03 03:25:00,
2013-03-02 22:30:00,55.2,36.9,29.94,WNW,292,0.0,0.0,50,0.00,,---,0.00,VWS V13.01,2013-03-03 03:30:00,
2013-03-02 22:35:00,55.0,36.8,29.94,WSW,248,0.0,0.0,50,0.00,,---,0.00,VWS V13.01,2013-03-03 03:35:00,
2013-03-02 22:40:00,54.9,36.6,29.94,WSW,248,0.0,0.0,50,0.00,,---,0.00,VWS V13.01,2013-03-03 03:40:00,
2013-03-02 22:45:00,54.9,36.6,29.94,WSW,248,0.0,0.0,50,0.00,,---,0.00,VWS V13.01,2013-03-03 03:45:00,
2013-03-02 22:50:00,54.7,36.4,29.94,WSW,248,0.0,0.0,50,0.00,,---,0.00,VWS V13.01,2013-03-03 03:50:00,
2013-03-02 22:55:00,54.5,36.3,29.95,WSW,248,0.0,0.0,50,0.00,,---,0.00,VWS V13.01,2013-03-03 03:55:00,
2013-03-02 23:00:00,54.3,36.6,29.94,WNW,292,0.0,0.0,51,0.00,,---,0.00,VWS V13.01,2013-03-03 04:00:00,
2013-03-02 23:05:00,54.3,36.6,29.94,West,270,0.0,0.0,51,0.00,,---,0.00,VWS V13.01,2013-03-03 04:05:00,
2013-03-02 23:10:00,54.1,35.9,29.94,West,270,0.0,0.0,50,0.00,,---,0.00,VWS V13.01,2013-03-03 04:10:00,
2013-03-02 23:15:00,54.1,35.9,29.93,West,270,0.0,0.0,50,0.00,,---,0.00,VWS V13.01,2013-03-03 04:15:00,
2013-03-02 23:20:00,54.1,36.4,29.93,West,270,0.0,0.0,51,0.00,,---,0.00,VWS V13.01,2013-03-03 04:20:00,
2013-03-02 23:25:00,54.1,36.4,29.93,West,270,0.0,0.0,51,0.00,,---,0.00,VWS V13.01,2013-03-03 04:25:00,
2013-03-02 23:30:00,54.0,36.3,29.93,West,270,0.0,0.0,51,0.00,,---,0.00,VWS V13.01,2013-03-03 04:30:00,
2013-03-02 23:35:00,53.8,36.1,29.93,SW,225,0.0,0.0,51,0.00,,---,0.00,VWS V13.01,2013-03-03 04:35:00,
2013-03-02 23:40:00,53.8,36.1,29.93,NW,315,0.0,0.0,51,0.00,,---,0.00,VWS V13.01,2013-03-03 04:40:00,
2013-03-02 23:45:00,53.6,35.9,29.93,WSW,248,0.0,0.0,51,0.00,,---,0.00,VWS V13.01,2013-03-03 04:45:00,
2013-03-02 23:50:00,53.4,36.2,29.93,WNW,292,0.0,0.0,52,0.00,,---,0.00,VWS V13.01,2013-03-03 04:50:00,
2013-03-02 23:55:00,53.4,36.2,29.93,West,270,0.0,0.0,52,0.00,,---,0.00,VWS V13.01,2013-03-03 04:55:00,